Skip Page Navigation
NASA JPL Caltech
NASA Logo - Jet Propulsion Laboratory + View the NASA Portal
+ Center for Near-Earth Object Studies
JPL Home Earth Solar System Stars & Galaxies Technology
JPL Solar System Dynamics
BODIES ORBITS EPHEMERIDES TOOLS PHYSICAL DATA DISCOVERY FAQ SITE MAP
JPL Small-Body Database Browser
Search: [ help ]  
71100 (1999 XV139)
Classification: Main-belt Asteroid          SPK-ID: 2071100
Ephemeris | Orbit Diagram | Orbital Elements | Mission Design | Physical Parameters | Discovery Circumstances | Close-Approach Data ]

[ show orbit diagram ]
Orbital Elements at Epoch 2459000.5 (2020-May-31.0) TDB
Reference: JPL 26 (heliocentric ecliptic J2000)
 Element Value Uncertainty (1-sigma)   Units 
e .04958441890875258 5.0501e-08  
a 3.027969401348304 2.2024e-08 au
q 2.877829298108965 1.5573e-07 au
i 10.81802260111543 3.8665e-06 deg
node 108.1643512521463 2.9696e-05 deg
peri 276.6714429498938 5.3634e-05 deg
M 30.79005297667291 4.2541e-05 deg
tp 2458835.898576978034
(2019-Dec-18.39857698)
0.0002278 TDB
period 1924.534275170023
5.27
2.0997e-05
5.749e-08
d
yr
n .1870582429446188 2.0409e-09 deg/d
Q 3.178109504587643 2.3116e-08 au
  Orbit Determination Parameters
   # obs. used (total)      983  
   data-arc span      7797 days (21.35 yr)  
   first obs. used      1998-09-21  
   last obs. used      2020-01-26  
   planetary ephem.      DE431  
   SB-pert. ephem.      SB431-N16  
   condition code      0  
   norm. resid. RMS      .50808  
   source      ORB  
   producer      Otto Matic  
   solution date      2020-Feb-23 16:20:57  

Additional Information
 Earth MOID = 1.90803 au 
 Jupiter MOID = 2.11148 au 
 T_jup = 3.215 
[ hide covariance matrix ]
Orbital Elements at Epoch 2457155.5 (2015-May-13.0) TDB
Reference: JPL 26 (heliocentric ecliptic J2000)
 Element Value Uncertainty (1-sigma)   Units 
e .04874433877990169 5.0949e-08  
q 2.879425196766047 1.5646e-07 au
tp 2456886.966103527288
(2014-Aug-17.46610353)
0.00023534 TDB
node 108.4020582086869 2.9696e-05 deg
peri 272.0833586288032 5.3975e-05 deg
i 10.8186920191192 3.8668e-06 deg
  Orbit Determination Parameters
   # obs. used (total)      983  
   data-arc span      7797 days (21.35 yr)  
   first obs. used      1998-09-21  
   last obs. used      2020-01-26  
   planetary ephem.      DE431  
   SB-pert. ephem.      SB431-N16  
   condition code      0  
   norm. resid. RMS      .50808  
   source      ORB  
   producer      Otto Matic  
   solution date      2020-Feb-23 16:20:57  

Additional Information
 Jupiter MOID = 2.11148 au 
 T_jup = 3.215 
Orbit Covariance (6×6)
  e q tp node peri i
e 2.595816355593774E-15 -7.900906593781334E-15 -1.578190699478575E-12 1.738203509776544E-15 -3.414275099570823E-13 -4.274230395476483E-15
q -7.900906593781334E-15 2.448036153793781E-14 3.405516602703686E-12 -6.062626719031226E-15 7.806214819427292E-13 1.416701780390388E-14
tp -1.578190699478575E-12 3.405516602703686E-12 5.538328375256165E-8 -7.719186004241367E-12 1.066071662117368E-8 4.118816719557184E-12
node 1.738203509776544E-15 -6.062626719031226E-15 -7.719186004241367E-12 8.818416564974638E-10 -8.672873885449693E-10 5.131787071251476E-13
peri -3.414275099570823E-13 7.806214819427292E-13 1.066071662117368E-8 -8.672873885449693E-10 2.913284389525566E-9 2.963031970982486E-13
i -4.274230395476483E-15 1.416701780390388E-14 4.118816719557184E-12 5.131787071251476E-13 2.963031970982486E-13 1.495187834951446E-11

Ephemeris | Orbit Diagram | Orbital Elements | Mission Design | Physical Parameters | Discovery Circumstances | Close-Approach Data ]

Physical Parameter Table
Parameter Symbol Value Units Sigma Reference Notes
absolute magnitude H 14.2   n/a MPO412620  
diameter diameter 5.347 km 0.464 urn:nasa:pds:neowise_diameters_albedos::2.0[mainbelt] (http://adsabs.harvard.edu/abs/2011ApJ...741...68M)  
geometric albedo albedo 0.155   0.017 urn:nasa:pds:neowise_diameters_albedos::2.0[mainbelt] (http://adsabs.harvard.edu/abs/2011ApJ...741...68M)  

71100 (1999 XV139)          Discovered 1999-Dec-02 by Spacewatch at Kitt Peak
Reference: 20031109/Numbers.arcLast Updated: 2004-04-19

[ show close-approach data ]
Ephemeris | Orbit Diagram | Orbital Elements | Mission Design | Physical Parameters | Discovery Circumstances | Close-Approach Data ]
ABOUT SSD CREDITS/AWARDS PRIVACY/COPYRIGHT GLOSSARY LINKS
FirstGov 2020-Oct-26 08:34 UT
(server date/time)  
NASA Home Page
Site Manager:   Ryan S. Park
Webmaster  Alan B. Chamberlin